Manhattan, KS

11:15 AM CST on December 07, 2019 (GMT -0600)
Manhattan Regional

Weather History for KMHK - October, 2019

Change the Weather History Date:

Thursday, October 10, 2019

  Actual Average Record
Temperature  
Mean Temperature 56 °F 57 °F  
Max Temperature 73 °F 70 °F 81 °F (2013)
Min Temperature 39 °F 44 °F 24 °F (2000)
Degree Days  
Heating Degree Days 9 9  
Month to date heating degree days 58 74  
Since 1 July heating degree days 59 144  
Cooling Degree Days 0 1  
Month to date cooling degree days 13 17  
Year to date cooling degree days 1608 1354  
Growing Degree Days 6 (Base 50)    
Moisture  
Dew Point 47 °F    
Average Humidity 77    
Maximum Humidity 89    
Minimum Humidity 64    
Precipitation  
Precipitation 0.03 in 0.08 in 0.49 in (2016)
Month to date precipitation 2.60 0.81  
Year to date precipitation 40.58 28.52  
Sea Level Pressure  
Sea Level Pressure 29.84 in    
Wind  
Wind Speed 9 mph (WNW)    
Max Wind Speed 20 mph    
Max Gust Speed 32 mph    
Visibility 10 miles    
Events Rain , Thunderstorm    
T = Trace of Precipitation, MM = Missing Value Source: NWS Daily Summary

Daily Weather History Graph

Daily Weather History Graph

Search for Another Location

Airport or City:

Astronomy

Oct. 10, 2019 Rise Set
Actual Time 7:31 AM CDT 6:55 PM CDT
Civil Twilight 7:04 AM CDT 7:22 PM CDT
Nautical Twilight 6:33 AM CDT 7:53 PM CDT
Astronomical Twilight 6:02 AM CDT 8:24 PM CDT
Moon 5:55 PM CDT (10/10) 4:17 AM CDT (10/10)
Length of Visible Light 12h 18m
Length of Day
11h 24m
Waxing Gibbous, 91% of the Moon is Illuminated
Oct 10
Waxing Gibbous
Oct 13
Full
Oct 21
Last Quarter
Oct 27
New
Nov 4
First Quarter

Hourly Weather History & Observations

Time (CDT) Temp. Windchill Dew Point Humidity Pressure Visibility Wind Dir Wind Speed Gust Speed Precip Events Conditions
12:52 AM 64.9 °F - 57.9 °F 78% 29.73 in 10.0 mi ESE 8.1 mph - N/A   Partly Cloudy
1:31 AM 64.9 °F - 57.9 °F 78% 29.72 in 10.0 mi SE 6.9 mph - N/A Thunderstorm Mostly Cloudy
1:52 AM 64.9 °F - 57.9 °F 78% 29.70 in 10.0 mi ESE 8.1 mph - N/A Thunderstorm Partly Cloudy
2:10 AM 64.0 °F - 57.9 °F 80% 29.71 in 10.0 mi SE 6.9 mph - N/A   Partly Cloudy
3:52 AM 64.9 °F - 59.0 °F 81% 29.63 in 10.0 mi South 5.8 mph - N/A   Clear
4:52 AM 66.0 °F - 60.1 °F 81% 29.62 in 10.0 mi South 15.0 mph 25.3 mph 0.00 in Rain Light Rain
5:30 AM 66.0 °F - 60.1 °F 81% 29.64 in 10.0 mi South 11.5 mph 21.9 mph 0.03 in Thunderstorm Overcast
5:45 AM 66.0 °F - 60.1 °F 81% 29.65 in 10.0 mi South 8.1 mph - 0.03 in   Overcast
5:52 AM 66.0 °F - 60.1 °F 81% 29.64 in 10.0 mi SSW 9.2 mph 19.6 mph 0.03 in   Mostly Cloudy
6:52 AM 64.9 °F - 57.9 °F 78% 29.65 in 10.0 mi SSW 10.4 mph 19.6 mph N/A   Clear
7:52 AM 64.9 °F - 59.0 °F 81% 29.68 in 10.0 mi SE 3.5 mph - N/A   Overcast
8:52 AM 66.9 °F - 61.0 °F 81% 29.68 in 10.0 mi Calm Calm - N/A   Overcast
8:59 AM 66.9 °F - 61.0 °F 81% 29.69 in 10.0 mi Calm Calm - N/A   Overcast
9:09 AM 68.0 °F - 61.0 °F 78% 29.69 in 10.0 mi Calm Calm - N/A   Overcast
9:52 AM 71.1 °F - 64.0 °F 78% 29.68 in 10.0 mi South 9.2 mph - N/A   Overcast
10:52 AM 72.0 °F - 64.9 °F 78% 29.68 in 10.0 mi South 9.2 mph - N/A   Overcast
11:19 AM 69.1 °F - 62.1 °F 78% 29.71 in 10.0 mi West 13.8 mph 24.2 mph N/A   Overcast
11:44 AM 60.8 °F - 53.6 °F 77% 29.73 in 10.0 mi WNW 9.2 mph 26.5 mph N/A   Overcast
11:52 AM 61.0 °F - 54.0 °F 78% 29.72 in 10.0 mi WNW 10.4 mph 24.2 mph N/A   Overcast
12:37 PM 55.0 °F - 48.9 °F 80% 29.77 in 10.0 mi WNW 9.2 mph - N/A   Overcast
12:52 PM 52.0 °F - 46.9 °F 83% 29.78 in 10.0 mi WNW 5.8 mph 23.0 mph N/A   Overcast
1:52 PM 48.9 °F - 44.1 °F 83% 29.82 in 10.0 mi WNW 9.2 mph 21.9 mph N/A   Overcast
2:52 PM 46.9 °F - 43.0 °F 86% 29.84 in 7.0 mi WNW 8.1 mph 19.6 mph 0.00 in   Overcast
3:42 PM 46.0 °F 41.0 °F 39.0 °F 76% 29.88 in 10.0 mi NNW 10.4 mph 21.9 mph N/A   Overcast
3:52 PM 46.0 °F 41.0 °F 39.9 °F 79% 29.89 in 10.0 mi WNW 10.4 mph 21.9 mph N/A   Overcast
4:52 PM 43.0 °F 37.2 °F 39.0 °F 86% 29.93 in 7.0 mi NW 10.4 mph 18.4 mph N/A   Overcast
5:00 PM 43.0 °F 38.8 °F 39.0 °F 86% 29.93 in 10.0 mi Variable 6.9 mph 18.4 mph N/A   Overcast
5:07 PM 43.0 °F 37.7 °F 39.0 °F 86% 29.93 in 10.0 mi NNW 9.2 mph 18.4 mph N/A   Overcast
5:30 PM 43.0 °F 38.8 °F 39.0 °F 86% 29.95 in 10.0 mi NNW 6.9 mph - N/A   Overcast
5:52 PM 43.0 °F 38.2 °F 37.9 °F 82% 29.96 in 10.0 mi NW 8.1 mph 18.4 mph N/A   Overcast
6:10 PM 43.0 °F 37.7 °F 37.9 °F 82% 29.96 in 10.0 mi NNW 9.2 mph 25.3 mph N/A   Overcast
6:23 PM 43.0 °F 36.4 °F 37.0 °F 80% 29.97 in 10.0 mi NW 12.7 mph 27.6 mph N/A   Overcast
6:35 PM 43.0 °F 37.7 °F 37.0 °F 80% 29.98 in 10.0 mi NNW 9.2 mph 21.9 mph N/A   Overcast
6:48 PM 42.8 °F 37.0 °F 37.4 °F 81% 29.99 in 10.0 mi NW 10.4 mph 21.9 mph N/A   Overcast
6:52 PM 42.1 °F 36.6 °F 37.0 °F 82% 29.99 in 10.0 mi NW 9.2 mph 21.9 mph N/A   Overcast
7:52 PM 42.1 °F 37.1 °F 35.1 °F 76% 30.02 in 10.0 mi NW 8.1 mph 23.0 mph N/A   Overcast
8:52 PM 42.1 °F 35.7 °F 33.1 °F 70% 30.05 in 10.0 mi NW 11.5 mph 24.2 mph N/A   Overcast
9:52 PM 41.0 °F 34.7 °F 32.0 °F 70% 30.10 in 10.0 mi NNW 10.4 mph 20.7 mph N/A   Overcast
10:04 PM 41.0 °F 34.7 °F 32.0 °F 70% 30.10 in 10.0 mi NNW 10.4 mph 20.7 mph N/A   Overcast
10:52 PM 39.9 °F 33.4 °F 30.0 °F 68% 30.12 in 10.0 mi NNW 10.4 mph 21.9 mph N/A   Overcast
11:45 PM 39.9 °F 33.9 °F 30.0 °F 68% 30.12 in 10.0 mi NNW 9.2 mph 19.6 mph N/A   Overcast
11:52 PM 39.9 °F 32.9 °F 28.9 °F 65% 30.13 in 10.0 mi NNW 11.5 mph 24.2 mph N/A   Overcast